Shannon, Ireland

6:39 AM GMT on November 18, 2017 (GMT +0000)
Shannon

Weather History for EINN - April, 2013

Change the Weather History Date:

Tuesday, April 9, 2013

  Actual Average Record
Temperature  
Mean Temperature 45 °F -  
Max Temperature 49 °F 56 °F 64 °F (1999)
Min Temperature 41 °F 42 °F 33 °F (2005)
Degree Days  
Heating Degree Days 20    
Moisture  
Dew Point 34 °F    
Average Humidity 65    
Maximum Humidity 87    
Minimum Humidity 47    
Precipitation  
Precipitation 0.00 in 0.07 in - ()
Sea Level Pressure  
Sea Level Pressure 29.46 in    
Wind  
Wind Speed 13 mph ()    
Max Wind Speed 21 mph    
Max Gust Speed 33 mph    
Visibility 5.6 miles    
Events Rain    
Averages and records for this station are not official NWS values.
T = Trace of Precipitation, MM = Missing Value Source: Averaged Metar Reports

Daily Weather History Graph

Daily Weather History Graph

Search for Another Location

Airport or City:

Trip Planner

Search our weather history database for the weather conditions in past years. The results will help you decide how hot, cold, wet, or windy it might be!

Date:

Astronomy

Apr. 09, 2013 Rise Set
Actual Time 6:51 AM IST 8:24 PM IST
Civil Twilight 6:15 AM IST 9:00 PM IST
Nautical Twilight 5:31 AM IST 9:44 PM IST
Astronomical Twilight 4:42 AM IST 10:33 PM IST
Moon 6:11 AM IST (4/9) 7:45 PM IST (4/9)
Length of Visible Light 14h 45m
Length of Day
13h 33m
Waning Crescent, 1% of the Moon is Illuminated
Apr 9
Waning Crescent
Apr 10
New
Apr 18
First Quarter
Apr 25
Full
May 2
Last Quarter

Hourly Weather History & Observations

Time (IST) Temp. Windchill Dew Point Humidity Pressure Visibility Wind Dir Wind Speed Gust Speed Precip Events Conditions
12:00 AM 44.6 °F 36.4 °F 37.4 °F 76% 29.36 in 6.2 mi East 20.7 mph 32.2 mph N/A Rain Light Rain
12:30 AM 44.6 °F 36.6 °F 35.6 °F 71% 29.36 in 6.2 mi East 19.6 mph - N/A   Mostly Cloudy
1:00 AM 44 °F - 35 °F 61% 29.37 in 11 mi East 17.9 mph - - Rain Light Rain
1:00 AM 44.6 °F 37.2 °F 35.6 °F 71% 29.36 in 6.2 mi East 17.3 mph - N/A Rain Light Rain
1:30 AM 44.6 °F 37.2 °F 35.6 °F 71% 29.36 in 6.2 mi East 17.3 mph - N/A Rain Light Rain
2:00 AM 44.6 °F 36.6 °F 35.6 °F 71% 29.36 in 6.2 mi East 19.6 mph - N/A Rain Light Rain
2:30 AM 44.6 °F 36.6 °F 35.6 °F 71% 29.36 in 6.2 mi East 19.6 mph 33.4 mph N/A Rain Light Rain
3:00 AM 44.6 °F 36.6 °F 35.6 °F 71% 29.36 in 6.2 mi East 19.6 mph - N/A   Mostly Cloudy
3:30 AM 44.6 °F 37.4 °F 33.8 °F 66% 29.36 in 6.2 mi East 16.1 mph - N/A Rain Light Rain
4:00 AM 44.6 °F 38.8 °F 33.8 °F 66% 29.36 in 6.2 mi ENE 11.5 mph - N/A   Mostly Cloudy
4:30 AM 42.8 °F 35.1 °F 33.8 °F 70% 29.36 in 6.2 mi ENE 16.1 mph - N/A   Mostly Cloudy
5:00 AM 42.8 °F 36.6 °F 33.8 °F 70% 29.36 in 6.2 mi ENE 11.5 mph - N/A   Mostly Cloudy
5:30 AM 42.8 °F 35.8 °F 33.8 °F 70% 29.39 in 6.2 mi ENE 13.8 mph - N/A   Mostly Cloudy
6:00 AM 41.0 °F 33.9 °F 32.0 °F 70% 29.39 in 6.2 mi ENE 12.7 mph - N/A   Mostly Cloudy
6:30 AM 41.0 °F 33.9 °F 32.0 °F 70% 29.39 in 6.2 mi ENE 12.7 mph - N/A   Mostly Cloudy
7:00 AM 41 °F - 32 °F 61% 29.42 in 7 mi ENE 13.4 mph - -   Partly Cloudy
7:00 AM 41.0 °F 33.5 °F 32.0 °F 70% 29.42 in 6.2 mi ENE 13.8 mph - N/A   Mostly Cloudy
7:30 AM 41.0 °F 33.5 °F 32.0 °F 70% 29.42 in 6.2 mi ENE 13.8 mph - N/A   Mostly Cloudy
8:00 AM 41.0 °F 33.1 °F 32.0 °F 70% 29.42 in 6.2 mi ENE 15.0 mph - N/A   Mostly Cloudy
8:30 AM 41.0 °F 32.8 °F 32.0 °F 70% 29.44 in 6.2 mi ENE 16.1 mph - N/A   Mostly Cloudy
9:00 AM 41.0 °F 32.5 °F 32.0 °F 70% 29.44 in 6.2 mi ENE 17.3 mph - N/A   Mostly Cloudy
9:30 AM 41.0 °F 33.5 °F 32.0 °F 70% 29.44 in 6.2 mi ENE 13.8 mph - N/A   Mostly Cloudy
10:00 AM 42.8 °F 35.4 °F 32.0 °F 66% 29.44 in 6.2 mi ENE 15.0 mph - N/A   Mostly Cloudy
10:30 AM 42.8 °F 35.1 °F 32.0 °F 66% 29.47 in 5.0 mi ENE 16.1 mph - N/A   Mostly Cloudy
11:00 AM 44.6 °F 37.4 °F 32.0 °F 61% 29.47 in 5.0 mi ENE 16.1 mph - N/A   Mostly Cloudy
11:30 AM 44.6 °F 37.8 °F 32.0 °F 61% 29.47 in 4.3 mi ENE 15.0 mph - N/A   Mostly Cloudy
12:00 PM 44.6 °F 38.4 °F 32.0 °F 61% 29.47 in 4.3 mi ENE 12.7 mph - N/A   Mostly Cloudy
12:30 PM 46.4 °F 40.4 °F 33.8 °F 62% 29.47 in 5.0 mi East 13.8 mph - N/A   Mostly Cloudy
1:00 PM 47 °F - 34 °F 49% 29.50 in 5 mi East 13.4 mph - -   Haze
1:00 PM 46.4 °F 40.4 °F 33.8 °F 62% 29.47 in 5.0 mi East 13.8 mph - N/A   Mostly Cloudy
1:30 PM 48.2 °F - 33.8 °F 58% 29.47 in 5.0 mi East 11.5 mph - N/A   Mostly Cloudy
2:00 PM 48.2 °F - 33.8 °F 58% 29.50 in 6.2 mi East 10.4 mph - N/A   Mostly Cloudy
2:30 PM 48.2 °F - 33.8 °F 58% 29.50 in 6.2 mi ENE 11.5 mph - N/A   Mostly Cloudy
3:00 PM 48.2 °F - 33.8 °F 58% 29.50 in 6.2 mi ENE 10.4 mph - N/A   Mostly Cloudy
3:30 PM 50.0 °F - 33.8 °F 54% 29.50 in 6.2 mi East 11.5 mph - N/A   Mostly Cloudy
4:00 PM 48.2 °F - 33.8 °F 58% 29.50 in 6.2 mi ENE 9.2 mph - N/A   Overcast
4:30 PM 48.2 °F - 33.8 °F 58% 29.50 in 6.2 mi East 9.2 mph - N/A   Mostly Cloudy
5:00 PM 48.2 °F - 33.8 °F 58% 29.50 in 6.2 mi East 8.1 mph - N/A   Mostly Cloudy
5:30 PM 50.0 °F - 33.8 °F 54% 29.50 in 4.3 mi ENE 9.2 mph - N/A   Mostly Cloudy
6:00 PM 48.2 °F - 33.8 °F 58% 29.50 in 4.3 mi East 9.2 mph - N/A   Mostly Cloudy
6:30 PM 48.2 °F - 33.8 °F 58% 29.50 in 4.3 mi ENE 9.2 mph - N/A   Overcast
7:00 PM 48 °F - 34 °F 47%  in 4 mi ENE 8.9 mph - -   Haze
7:00 PM 48.2 °F - 33.8 °F 58% 29.50 in 4.3 mi ENE 8.1 mph - N/A   Overcast
7:30 PM 48.2 °F - 33.8 °F 58% 29.53 in 4.3 mi ENE 8.1 mph - N/A   Overcast
8:00 PM 48.2 °F - 33.8 °F 58% 29.53 in 4.3 mi ENE 8.1 mph - N/A   Overcast
8:30 PM 46.4 °F 44.3 °F 35.6 °F 66% 29.53 in 4.3 mi SE 4.6 mph - N/A   Overcast
9:00 PM 46.4 °F 42.9 °F 37.4 °F 71% 29.56 in 5.0 mi ESE 6.9 mph - N/A   Overcast
9:30 PM 46.4 °F 42.9 °F 37.4 °F 71% 29.56 in 4.3 mi East 6.9 mph - N/A Rain Light Rain
10:00 PM 44.6 °F 41.4 °F 39.2 °F 81% 29.56 in 4.3 mi SSE 5.8 mph - N/A   Overcast
10:30 PM 44.6 °F 42.2 °F 39.2 °F 81% 29.56 in 4.3 mi SE 4.6 mph - N/A   Light Drizzle
11:00 PM 44.6 °F 40.7 °F 39.2 °F 81% 29.56 in 3.7 mi SE 6.9 mph - N/A   Light Drizzle
11:30 PM 42.8 °F 38.0 °F 39.2 °F 87% 29.59 in 3.7 mi SE 8.1 mph - N/A Rain Light Rain